Regional Weather Roundup
Issued by NWS Upton, NY

Current Version | Previous Version | Text Only | Print | Product List | Glossary On
Versions: 1 2 3 4 5 6 7 8 9 10 11 12 13 14 15 16 17 18 19 20 21 22 23 24 25 26 27 28 29 30 31 32 33 34 35 36 37 38 39 40 41 42 43 44 45 46 47 48 49 50
000 ASUS41 KOKX 190708 RWROKX REGIONAL WEATHER ROUNDUP NATIONAL WEATHER SERVICE NEW YORK NY 300 AM EDT THU OCT 19 2017 NOTE: "FAIR" INDICATES FEW OR NO CLOUDS BELOW 12,000 FEET WITH NO SIGNIFICANT WEATHER AND/OR OBSTRUCTIONS TO VISIBILITY. NYZ071-072-176-178-NJZ106-104-190800- NEW YORK CITY METRO AREA CITY SKY/WX TMP DP RH WIND PRES REMARKS Central Park CLEAR 60 45 57 W6 30.29S Bronx Bot Gard N/A 59 43 55 W7 30.26F LaGuardia APRT CLEAR 61 45 55 SW6 30.25F Kennedy INTL CLEAR 54 52 93 SW7 30.28S Breezy Point N/A 57 N/A N/A W7 N/A Newark/Liberty CLEAR 54 46 74 SW7 30.27S Teterboro CLEAR 51 46 83 CALM 30.25F $$ NYZ177-179-078>081-190800- LONG ISLAND NEW YORK CITY SKY/WX TMP DP RH WIND PRES REMARKS Jones Beach N/A 59 N/A N/A SW5 N/A Matinecock PT N/A 59 N/A N/A SW8 N/A Farmingdale CLEAR 52 49 89 CALM 30.27F MacArthur/ISP CLEAR 53 51 93 SW3 30.27S Shirley CLEAR 54 51 90 SW5 30.27F Mt Sinai Harb N/A N/A N/A N/A SW6 N/A Westhampton FOG 41 39 93 CALM 30.29S VSB 1/4 East Hampton FAIR 43 42 96 CALM 30.26F Montauk N/A 60 58 92 CALM 30.28S $$ NYZ052-065-067-190800- HUDSON VALLEY CITY SKY/WX TMP DP RH WIND PRES REMARKS White Plains CLEAR 50 46 86 CALM 30.25S Larchmont Harb N/A 59 N/A N/A CALM N/A Croton On Huds N/A 52 N/A N/A CALM N/A Newburgh CLEAR 48 45 87 CALM 30.25F Montgomery CLEAR 44 43 96 CALM 30.24F Poughkeepsie CLEAR 44 41 89 CALM 30.24S Albany CLEAR 48 44 86 CALM 30.22S $$ NJZ001-105-106-008-010-013-015-019>022-104-190800- NEW JERSEY CITY SKY/WX TMP DP RH WIND PRES REMARKS Newark/Liberty CLEAR 54 46 74 SW7 30.27S Teterboro CLEAR 51 46 83 CALM 30.25F Caldwell CLEAR 47 47 100 CALM 30.27F Somerville CLEAR 42 41 96 CALM 30.26F Linden FAIR 54 47 78 W3 30.27S Perth Amboy N/A 52 N/A N/A W3 N/A Sussex CLEAR 42 41 96 CALM 30.26S Andover N/A 43 42 97 S3 30.26F Trenton CLEAR 49 46 90 CALM 30.27F Millville CLEAR 44 43 96 CALM 30.29F Atlantic City CLEAR 46 44 93 CALM 30.29F Wrightstown CLEAR 47 44 91 CALM 30.26F Toms River N/A 43 41 93 CALM 30.29F Belmar CLEAR 52 46 80 SW5 30.29F $$ PAZ047>061-062-071-190800- EASTERN PENNSYLVANIA CITY SKY/WX TMP DP RH WIND PRES REMARKS Philadelphia PTCLDY 53 47 79 SW6 30.29F Allentown CLEAR 44 41 89 CALM 30.27S Scranton CLEAR 45 43 93 CALM 30.24F $$ CTZ002-004>006-009-010-012-RIZ004-006-007-MAZ004-011-015-190800- SOUTHERN NEW ENGLAND IN CT CITY SKY/WX TMP DP RH WIND PRES REMARKS Bradley INTL CLEAR 45 43 93 CALM 30.24F Hartford FOG 47 45 93 CALM 30.25S VSB 1/2 Danbury CLEAR 43 41 93 CALM 30.27S Wtrbury/Oxford CLEAR 47 46 97 CALM 30.26F Norwalk Harbor N/A 55 N/A N/A W5 N/A Bridgeport CLEAR 51 49 92 CALM 30.26S Meriden PTCLDY 42 41 96 CALM 30.25F FOG New Haven CLEAR 46 44 93 CALM 30.26F Chester FAIR 54 52 94 SW5 30.26F Groton CLEAR 48 46 93 CALM 30.26S Wilimantic CLEAR 42 41 96 CALM 30.27F IN RI CITY SKY/WX TMP DP RH WIND PRES REMARKS Providence CLEAR 48 48 100 CALM 30.27F Block Island CLEAR 57 56 96 SW7 30.27F Westerly CLEAR 45 43 93 CALM 30.27F IN MA CITY SKY/WX TMP DP RH WIND PRES REMARKS Boston CLEAR 53 47 79 S6 30.24F Worcester CLEAR 49 44 83 SW10 30.24F Westfield CLEAR 41 40 96 CALM 30.24F Provincetown CLEAR 56 55 97 S7 30.26F Nantucket CLEAR 56 56 100 SW7 30.27F $$ ANZ330-335-338-340-345-350-353-355-190800- COASTAL MARINE OBSERVATIONS STATION/POSITION TIME SKY/WX TEMP WIND PRES VSBY WAVE AIR SEA DIR/SP/G HT/PER (UTC) (F) (DEG/KT/KT) (MB) (MI) (FT/S) NY HARB ENTRANCE 0550 62 65 230/ 12/ 16 1024.6 3/10 20 S FIRE ISLAND 0650 64 64 240/ 12/ 16 1025.3 3/ 9 GREAT SOUTH BAY 0630 61 62 250/ 8/ 10 N/A 15 E BARNEGAT LI 0630 66 N/A 3/11 HUDSON CANYON 0550 64 65 230/ 10/ 12 1025.5 3/10 KINGS POINT 0648 66 190/ 4/ 5 1025.4 EXECUTION ROCKS 0630 63 210/ 8/ 10 N/A WESTERN LI SOUND 0549 63 220/ 10/ 14 N/A 1 CENTRAL LI SOUND 0615 65 230/ 12/ 14 N/A 2 EASTERN LI SOUND NOT AVBL ROBBINS REEF 0642 260/ 11/ 12 1025.4 $$ >>>>>>>>>>>>>>>>>>>>>>>>>>>> KEY <<<<<<<<<<<<<<<<<<<<<<<<<<< > < > SKY/WX - Sky Condition/Present Weather < > TMP - Temperature in Fahrenheit < > DP - Dew Point in Fahrenheit < > RH - Relative Humidity in Percent < > WIND - Direction (from) and Speed in MPH < > PRES - Mean Sea Level Pressure (inches of Hg) < > WCI - Wind Chill Index < > VSB - VISIBILITY IN MILES < > HX - HEAT INDEX < > TC - TEMPERATURE IN CELSIUS < > VRB - VARIABLE WIND DIRECTION < > < >>>>>>>>>>>>>>>>>>>>>>>>>>>> KEY <<<<<<<<<<<<<<<<<<<<<<<<<<<

USA.gov is the U.S. government's official web portal to all federal, state and local government web resources and services.